Bloomington, IN

12:55 PM EST on December 12, 2019 (GMT -0500)
Monroe County

Weather History for KBMG - August, 2019

Change the Weather History Date:

Monday, August 5, 2019

  Actual Average Record
Temperature  
Mean Temperature 74 °F 74 °F  
Max Temperature 88 °F 84 °F 92 °F (2012)
Min Temperature 60 °F 63 °F 50 °F (2017)
Degree Days  
Heating Degree Days 0 0  
Month to date heating degree days 0 0  
Since 1 June heating degree days 14 17  
Since 1 July heating degree days 0 2  
Cooling Degree Days 9 9  
Month to date cooling degree days 41 45  
Year to date cooling degree days 748 611  
Since 1 June cooling degree days 617 529  
Growing Degree Days 24 (Base 50)    
Moisture  
Dew Point 65 °F    
Average Humidity 73    
Maximum Humidity 100    
Minimum Humidity 46    
Precipitation  
Precipitation 0.00 in 0.12 in 0.92 in (2008)
Month to date precipitation 0.00 0.59  
Year to date precipitation 32.04 30.26  
Sea Level Pressure  
Sea Level Pressure 29.97 in    
Wind  
Wind Speed 2 mph (West)    
Max Wind Speed 9 mph    
Max Gust Speed 14 mph    
Visibility 10 miles    
Events      
T = Trace of Precipitation, MM = Missing Value Source: NWS Daily Summary

Daily Weather History Graph

Daily Weather History Graph

Search for Another Location

Airport or City:

Astronomy

Aug. 05, 2019 Rise Set
Actual Time 6:50 AM EDT 8:54 PM EDT
Civil Twilight 6:20 AM EDT 9:23 PM EDT
Nautical Twilight 5:44 AM EDT 9:59 PM EDT
Astronomical Twilight 5:05 AM EDT 10:38 PM EDT
Moon 12:03 PM EDT (8/5) No Moon Set
Length of Visible Light 15h 02m
Length of Day
14h 03m
Waxing Crescent, 28% of the Moon is Illuminated
Aug 5
Waxing Crescent
Aug 7
First Quarter
Aug 15
Full
Aug 23
Last Quarter
Aug 30
New

Hourly Weather History & Observations

Time (EDT) Temp. Heat Index Dew Point Humidity Pressure Visibility Wind Dir Wind Speed Gust Speed Precip Events Conditions
12:53 AM 64.0 °F - 63.0 °F 96% 29.99 in 10.0 mi Calm Calm - N/A   Clear
1:53 AM 63.0 °F - 62.1 °F 97% 29.99 in 10.0 mi Calm Calm - N/A   Clear
2:53 AM 62.1 °F - 62.1 °F 100% 30.00 in 10.0 mi Calm Calm - N/A   Clear
3:53 AM 62.1 °F - 61.0 °F 96% 30.00 in 10.0 mi Calm Calm - N/A   Clear
4:53 AM 61.0 °F - 61.0 °F 100% 29.99 in 10.0 mi Calm Calm - N/A   Clear
5:53 AM 62.1 °F - 62.1 °F 100% 29.98 in 10.0 mi Calm Calm - N/A   Clear
6:53 AM 61.0 °F - 61.0 °F 100% 29.99 in 10.0 mi Calm Calm - N/A   Clear
7:53 AM 64.0 °F - 63.0 °F 96% 29.99 in 10.0 mi Calm Calm - N/A   Clear
8:53 AM 72.0 °F - 68.0 °F 87% 30.00 in 10.0 mi Calm Calm - N/A   Clear
9:53 AM 80.1 °F 82.1 °F 66.0 °F 62% 30.01 in 10.0 mi NE 4.6 mph - N/A   Clear
10:53 AM 82.9 °F 85.0 °F 66.0 °F 56% 30.01 in 10.0 mi Calm Calm - N/A   Clear
11:53 AM 84.9 °F 86.1 °F 64.0 °F 49% 30.01 in 10.0 mi Calm Calm - N/A   Clear
12:53 PM 86.0 °F 87.6 °F 64.9 °F 49% 30.00 in 10.0 mi Calm Calm - N/A   Clear
1:53 PM 87.1 °F 88.9 °F 64.9 °F 48% 29.99 in 10.0 mi Calm Calm - N/A   Mostly Cloudy
2:53 PM 87.1 °F 90.6 °F 68.0 °F 53% 29.97 in 10.0 mi West 5.8 mph - N/A   Scattered Clouds
3:53 PM 87.1 °F 89.9 °F 66.9 °F 51% 29.96 in 10.0 mi WSW 6.9 mph - N/A   Clear
4:53 PM 87.1 °F 89.9 °F 66.9 °F 51% 29.94 in 10.0 mi Variable 3.5 mph - N/A   Clear
5:53 PM 86.0 °F 88.8 °F 66.9 °F 53% 29.92 in 10.0 mi West 6.9 mph - N/A   Clear
6:53 PM 84.9 °F 88.2 °F 68.0 °F 57% 29.92 in 10.0 mi West 6.9 mph - N/A   Clear
7:53 PM 82.0 °F 85.5 °F 69.1 °F 65% 29.91 in 10.0 mi WSW 3.5 mph - N/A   Clear
8:53 PM 75.0 °F - 70.0 °F 84% 29.90 in 10.0 mi Calm Calm - N/A   Clear
9:53 PM 72.0 °F - 69.1 °F 91% 29.89 in 10.0 mi Calm Calm - N/A   Clear
10:53 PM 71.1 °F - 68.0 °F 90% 29.91 in 10.0 mi Calm Calm - N/A   Clear
11:53 PM 69.1 °F - 66.9 °F 93% 29.91 in 10.0 mi Calm Calm - N/A   Clear